1500156000.9,36424,17.06,73996.5,-0.79,-1.79,-1.55,0,*67
1500156002.12,36425,17.0,73996.8,-0.81,-1.91,-1.59,0,*6B
1500156003.33,36426,17.06,73996.5,-0.81,-1.83,-1.59,0,*6B
1500156004.55,36427,17.0,73998.5,-0.81,-1.83,-1.59,0,*6A
1500156005.77,36428,17.06,74002.3,-0.81,-1.83,-1.67,0,*68
1500156006.98,36429,17.0,73996.0,-0.81,-1.71,-1.67,0,*64
1500156008.2,36430,17.0,73996.8,-0.83,-1.71,-1.59,0,*63
1500156009.39,36431,17.06,74002.8,-0.81,-1.71,-1.59,0,*60
1500156010.59,36432,17.06,74000.8,-0.81,-1.71,-1.59,0,*63
1500156011.77,36433,17.0,74000.3,-0.81,-1.79,-1.59,0,*6A
1500156012.97,36434,17.06,74002.8,-0.81,-1.71,-1.59,0,*65
1500156014.16,36435,17.06,74002.0,-0.81,-1.71,-1.55,0,*68
1500156015.35,36436,17.0,74000.3,-0.81,-1.79,-1.59,0,*6F
1500156016.56,36437,17.0,74002.8,-0.79,-1.75,-1.55,0,*69
1500156017.75,36438,17.0,74000.5,-0.81,-1.79,-1.59,0,*61
1500156018.95,36439,17.0,74010.0,-0.81,-1.71,-1.59,0,*68
1500156020.16,36440,17.06,74004.0,-0.79,-1.67,-1.51,0,*6E
1500156021.36,36441,17.0,74004.8,-0.81,-1.71,-1.55,0,*6B
1500156022.57,36442,17.06,74012.0,-0.79,-1.63,-1.51,0,*68
1500156023.79,36443,17.06,74008.5,-0.79,-1.75,-1.51,0,*6E
1500156024.98,36444,17.06,74006.3,-0.81,-1.71,-1.59,0,*62
1500156026.18,36445,17.06,74002.0,-0.81,-1.79,-1.67,0,*66
1500156027.37,36446,17.0,74000.8,-0.81,-1.71,-1.59,0,*60
1500156028.58,36447,17.0,74002.8,-0.79,-1.67,-1.55,0,*6D
1500156029.78,36448,17.06,74006.3,-0.81,-1.71,-1.59,0,*6E
1500156030.97,36449,17.06,74006.3,-0.81,-1.71,-1.59,0,*6F
1500156032.16,36450,17.06,74000.0,-0.81,-1.79,-1.59,0,*6F
1500156033.37,36451,17.0,74002.5,-0.79,-1.79,-1.59,0,*69
1500156034.59,36452,17.06,74000.0,-0.79,-1.75,-1.63,0,*6F
1500156035.77,36453,17.06,74002.5,-0.81,-1.79,-1.59,0,*6C
1500156036.99,36454,17.0,74002.8,-0.79,-1.67,-1.55,0,*6F
1500156038.18,36455,17.06,74006.3,-0.81,-1.71,-1.59,0,*62
1500156039.4,36456,17.06,74004.0,-0.79,-1.67,-1.55,0,*6D
1500156040.58,36457,17.06,74008.0,-0.81,-1.67,-1.59,0,*67
1500156041.8,36458,17.0,74006.8,-0.79,-1.63,-1.55,0,*67
1500156042.99,36459,17.06,74004.5,-0.81,-1.67,-1.55,0,*65
1500156044.2,36460,17.0,74006.5,-0.79,-1.55,-1.51,0,*6D
1500156045.39,36461,17.0,74010.0,-0.81,-1.59,-1.55,0,*63
1500156046.58,36462,17.0,74012.5,-0.81,-1.67,-1.55,0,*6D
1500156047.76,36463,17.0,74008.5,-0.81,-1.59,-1.51,0,*65
1500156048.98,36464,17.0,74010.5,-0.79,-1.55,-1.51,0,*69
1500156050.22,36465,17.0,74006.3,-0.79,-1.55,-1.47,0,*6F
1500156051.43,36466,17.06,74008.3,-0.79,-1.63,-1.51,0,*6E
1500156052.65,36467,17.06,74010.0,-0.79,-1.63,-1.51,0,*6F
1500156053.86,36468,17.0,74006.0,-0.79,-1.63,-1.51,0,*60
1500156055.05,36469,17.0,74004.3,-0.81,-1.67,-1.51,0,*62
1500156056.24,36470,17.0,74004.0,-0.81,-1.67,-1.55,0,*6E
1500156057.48,36471,17.0,74006.0,-0.79,-1.67,-1.47,0,*6B
1500156058.7,36472,17.06,74004.5,-0.79,-1.63,-1.51,0,*6B
1500156059.91,36473,17.0,74004.3,-0.79,-1.63,-1.51,0,*6A
1500156061.13,36474,17.0,74006.0,-0.79,-1.55,-1.51,0,*68
1500156062.37,36475,17.0,74004.8,-0.79,-1.63,-1.47,0,*6B
1500156063.58,36476,17.0,74010.3,-0.79,-1.63,-1.51,0,*6F
1500156064.8,36477,17.06,74012.8,-0.77,-1.67,-1.47,0,*63
1500156066.01,36478,17.0,74006.5,-0.79,-1.67,-1.51,0,*65
1500156067.23,36479,17.0,74010.8,-0.79,-1.63,-1.51,0,*60
1500156068.44,36480,17.06,74012.5,-0.79,-1.67,-1.51,0,*62
1500156069.66,36481,17.06,74010.0,-0.79,-1.75,-1.51,0,*60
1500156070.87,36482,17.0,74010.8,-0.79,-1.67,-1.51,0,*60
1500156072.09,36483,17.0,74008.5,-0.79,-1.67,-1.51,0,*61
1500156073.3,36484,17.0,74012.3,-0.79,-1.67,-1.51,0,*66
1500156074.52,36485,17.0,74010.5,-0.79,-1.67,-1.51,0,*67
1500156075.7,36486,17.0,74008.8,-0.77,-1.63,-1.51,0,*6E
1500156076.92,36487,17.0,74010.8,-0.79,-1.63,-1.51,0,*61
1500156078.13,36488,17.06,74018.8,-0.77,-1.67,-1.47,0,*63
1500156079.32,36489,17.0,74012.8,-0.77,-1.63,-1.51,0,*61
1500156080.51,36490,17.0,74014.0,-0.77,-1.67,-1.51,0,*6D
1500156081.72,36491,17.06,74018.0,-0.77,-1.67,-1.47,0,*6B
1500156082.94,36492,17.0,74014.5,-0.77,-1.63,-1.47,0,*6C
1500156084.13,36493,17.0,74008.8,-0.77,-1.67,-1.51,0,*6E
1500156085.31,36494,17.0,74012.3,-0.77,-1.67,-1.51,0,*69
1500156086.5,36495,17.0,74014.0,-0.77,-1.67,-1.51,0,*68
1500156087.69,36496,17.0,74008.3,-0.77,-1.67,-1.51,0,*6B
1500156088.88,36497,17.0,74006.5,-0.77,-1.75,-1.51,0,*69
1500156090.07,36498,17.0,74008.0,-0.77,-1.67,-1.51,0,*65
1500156091.25,36499,17.0,74010.0,-0.77,-1.75,-1.51,0,*67
1500156092.44,36500,17.06,74008.5,-0.77,-1.75,-1.51,0,*66
1500156093.66,36501,17.06,74008.8,-0.77,-1.67,-1.47,0,*63
1500156094.84,36502,17.0,74008.0,-0.77,-1.75,-1.51,0,*64
1500156096.03,36503,17.0,74008.5,-0.77,-1.75,-1.51,0,*65
1500156097.22,36504,17.0,74008.5,-0.77,-1.75,-1.51,0,*62
1500156098.41,36505,17.06,74014.0,-0.77,-1.67,-1.51,0,*60
1500156099.59,36506,17.06,74010.0,-0.77,-1.79,-1.55,0,*68
1500156100.78,36507,17.0,74006.8,-0.77,-1.75,-1.55,0,*65
1500156101.96,36508,17.06,74010.8,-0.77,-1.75,-1.55,0,*6A
1500156103.15,36509,17.06,74010.5,-0.77,-1.75,-1.55,0,*6B
1500156104.34,36510,17.0,74006.0,-0.77,-1.63,-1.51,0,*60
1500156105.52,36511,17.0,74004.3,-0.77,-1.75,-1.55,0,*62
1500156106.71,36512,17.0,74004.5,-0.77,-1.75,-1.51,0,*65
1500156107.9,36513,17.0,74006.8,-0.77,-1.75,-1.55,0,*60
1500156109.08,36514,17.0,74010.0,-0.77,-1.75,-1.63,0,*62
1500156110.3,36515,17.0,74008.8,-0.79,-1.75,-1.55,0,*68
1500156111.51,36516,17.0,74012.0,-0.79,-1.67,-1.55,0,*68
1500156112.69,36517,17.0,74006.8,-0.77,-1.75,-1.55,0,*64
1500156113.91,36518,17.0,74006.0,-0.79,-1.75,-1.55,0,*65
1500156115.12,36519,17.0,74006.8,-0.79,-1.75,-1.51,0,*60
1500156116.31,36520,17.06,74008.3,-0.77,-1.75,-1.51,0,*64
1500156117.5,36521,17.06,74008.5,-0.77,-1.67,-1.55,0,*62
1500156118.68,36522,17.06,74008.5,-0.77,-1.75,-1.63,0,*67
1500156119.87,36523,17.0,74006.8,-0.77,-1.67,-1.55,0,*60
1500156121.06,36524,17.06,74012.0,-0.77,-1.75,-1.55,0,*64
1500156122.24,36525,17.0,74008.8,-0.77,-1.67,-1.51,0,*62
1500156123.48,36526,17.0,74004.5,-0.75,-1.63,-1.43,0,*64
1500156124.7,36527,17.0,74004.8,-0.79,-1.63,-1.51,0,*6A
1500156125.93,36528,17.0,74004.3,-0.75,-1.59,-1.47,0,*67
1500156127.12,36529,17.0,74004.3,-0.77,-1.63,-1.51,0,*6A
1500156128.31,36530,17.0,74006.8,-0.77,-1.67,-1.51,0,*66
1500156129.5,36531,17.06,74004.3,-0.77,-1.63,-1.51,0,*63
1500156130.69,36532,17.06,74006.3,-0.77,-1.67,-1.51,0,*64
1500156131.87,36533,17.0,74006.0,-0.77,-1.75,-1.51,0,*66
1500156133.06,36534,17.0,74006.5,-0.77,-1.63,-1.51,0,*66
1500156134.25,36535,17.0,74004.8,-0.77,-1.63,-1.51,0,*67
1500156135.44,36536,17.0,74004.8,-0.77,-1.63,-1.51,0,*64
1500156136.68,36537,17.0,74004.5,-0.75,-1.71,-1.47,0,*63
1500156137.87,36538,17.0,74010.0,-0.77,-1.67,-1.51,0,*6E
1500156139.09,36539,17.0,74006.3,-0.75,-1.63,-1.51,0,*69
1500156140.33,36540,17.0,74010.5,-0.75,-1.71,-1.47,0,*63
1500156141.52,36541,17.0,74008.0,-0.77,-1.75,-1.51,0,*63
1500156142.71,36542,17.0,74010.3,-0.77,-1.67,-1.51,0,*63
1500156143.95,36543,17.0,74010.3,-0.75,-1.63,-1.47,0,*63
1500156145.17,36544,17.0,74008.5,-0.77,-1.71,-1.47,0,*65
1500156146.36,36545,17.0,74012.0,-0.77,-1.67,-1.51,0,*64
1500156147.55,36546,17.0,74008.3,-0.77,-1.67,-1.51,0,*67
1500156148.73,36547,17.0,74006.8,-0.77,-1.75,-1.51,0,*65
1500156149.92,36548,17.0,74006.3,-0.77,-1.75,-1.51,0,*6A
1500156151.11,36549,17.0,74010.8,-0.77,-1.75,-1.55,0,*6F
1500156152.3,36550,17.0,74002.5,-0.77,-1.75,-1.51,0,*63
1500156153.48,36551,17.0,74006.5,-0.77,-1.75,-1.51,0,*62
1500156154.67,36552,17.0,74010.8,-0.77,-1.79,-1.51,0,*6D
1500156155.89,36553,17.0,74010.8,-0.77,-1.87,-1.55,0,*69
1500156157.1,36554,17.0,74008.3,-0.77,-1.87,-1.63,0,*6B
1500156158.34,36555,17.0,74004.5,-0.75,-1.83,-1.51,0,*6D
1500156159.56,36556,17.0,74008.0,-0.75,-1.75,-1.51,0,*67
1500156160.74,36557,17.0,74008.3,-0.77,-1.79,-1.55,0,*6C
1500156161.93,36558,17.0,74006.5,-0.77,-1.79,-1.55,0,*63
1500156163.12,36559,17.0,74004.3,-0.77,-1.79,-1.55,0,*62
1500156164.33,36560,17.0,74008.0,-0.75,-1.75,-1.51,0,*62
1500156165.52,36561,17.0,74016.5,-0.77,-1.79,-1.63,0,*6C
1500156166.73,36562,17.0,74008.0,-0.75,-1.75,-1.51,0,*60
1500156167.97,36563,17.0,74010.0,-0.75,-1.83,-1.59,0,*60
1500156169.21,36564,17.0,74010.3,-0.75,-1.83,-1.59,0,*67
1500156170.4,36565,17.0,74012.5,-0.77,-1.79,-1.55,0,*6D
1500156171.58,36566,17.0,74014.0,-0.77,-1.79,-1.55,0,*6E
1500156172.8,36567,17.0,74012.8,-0.75,-1.75,-1.59,0,*6D
1500156173.98,36568,17.0,74008.0,-0.77,-1.75,-1.55,0,*6C
1500156175.17,36569,17.0,74010.8,-0.77,-1.67,-1.55,0,*6E
1500156176.35,36570,17.0,74010.0,-0.77,-1.67,-1.55,0,*66
1500156177.57,36571,17.0,74010.5,-0.75,-1.63,-1.51,0,*65
1500156178.75,36572,17.0,74004.5,-0.77,-1.67,-1.55,0,*64
1500156179.94,36573,17.0,74010.5,-0.77,-1.67,-1.51,0,*61
1500156181.13,36574,17.0,74010.8,-0.77,-1.75,-1.51,0,*65
1500156182.38,36575,17.0,74014.5,-0.75,-1.71,-1.47,0,*65
1500156183.59,36576,17.0,74012.8,-0.77,-1.63,-1.47,0,*67
1500156184.78,36577,17.0,74010.0,-0.77,-1.75,-1.51,0,*66
1500156186.02,36578,17.0,74008.8,-0.75,-1.63,-1.47,0,*6B
1500156187.21,36579,17.0,74006.8,-0.77,-1.75,-1.51,0,*68
1500156188.43,36580,17.0,74010.8,-0.75,-1.71,-1.51,0,*68
1500156189.64,36581,17.0,74008.5,-0.75,-1.63,-1.51,0,*6A
1500156190.83,36582,17.0,74008.3,-0.77,-1.75,-1.51,0,*6C
1500156192.05,36583,17.0,74008.0,-0.75,-1.71,-1.51,0,*6B
1500156193.27,36584,17.0,74004.0,-0.75,-1.71,-1.51,0,*6C
1500156194.48,36585,17.0,74000.3,-0.75,-1.63,-1.51,0,*6E
1500156195.71,36586,17.0,74006.3,-0.75,-1.71,-1.51,0,*6E
1500156196.93,36587,17.0,74004.8,-0.75,-1.71,-1.51,0,*6F
1500156198.14,36588,17.0,74010.8,-0.75,-1.75,-1.59,0,*6C
1500156199.32,36589,17.0,74004.0,-0.77,-1.79,-1.55,0,*6F
1500156200.57,36590,17.0,74004.3,-0.75,-1.71,-1.47,0,*6E
1500156201.81,36591,17.0,74004.3,-0.75,-1.83,-1.59,0,*6D
1500156203.03,36592,17.0,74008.5,-0.75,-1.71,-1.51,0,*6B
1500156204.25,36593,17.0,74008.0,-0.75,-1.75,-1.51,0,*6E
1500156205.43,36594,17.0,74002.5,-0.77,-1.79,-1.55,0,*63
1500156206.65,36595,17.0,74006.3,-0.75,-1.75,-1.63,0,*69
1500156207.86,36596,17.0,74010.0,-0.75,-1.75,-1.59,0,*63
1500156209.07,36597,17.0,74002.5,-0.75,-1.75,-1.51,0,*6A
1500156210.29,36598,17.0,74004.3,-0.75,-1.71,-1.51,0,*61
1500156211.48,36599,17.0,74006.0,-0.77,-1.67,-1.55,0,*61
1500156212.66,36600,17.0,74004.3,-0.77,-1.75,-1.55,0,*61
1500156213.85,36601,17.0,74002.8,-0.77,-1.67,-1.55,0,*63
1500156215.04,36602,17.0,74002.8,-0.77,-1.75,-1.55,0,*63
1500156216.22,36603,17.0,74008.0,-0.77,-1.75,-1.55,0,*62
1500156217.43,36604,17.0,74004.3,-0.77,-1.63,-1.47,0,*61
1500156218.62,36605,17.0,74004.5,-0.77,-1.67,-1.51,0,*63
1500156219.87,36606,17.0,74004.3,-0.75,-1.71,-1.47,0,*62
1500156221.06,36607,17.0,74004.5,-0.77,-1.79,-1.51,0,*6E
1500156222.28,36608,17.0,74010.3,-0.75,-1.71,-1.51,0,*6B
1500156223.47,36609,17.0,74008.5,-0.77,-1.75,-1.63,0,*6D
1500156224.68,36610,17.0,74010.3,-0.75,-1.63,-1.51,0,*61
1500156225.9,36611,17.0,74008.8,-0.75,-1.71,-1.59,0,*6B
1500156227.11,36612,17.0,74006.5,-0.75,-1.75,-1.59,0,*6C
1500156228.32,36613,17.0,74012.5,-0.75,-1.75,-1.51,0,*65
1500156229.51,36614,17.0,74010.8,-0.77,-1.79,-1.55,0,*68
1500156230.73,36615,17.0,74012.3,-0.75,-1.71,-1.51,0,*67
1500156231.92,36616,17.0,74006.0,-0.77,-1.79,-1.55,0,*6A
1500156233.13,36617,17.0,74008.0,-0.75,-1.75,-1.51,0,*61
1500156234.35,36618,17.0,74004.0,-0.77,-1.87,-1.63,0,*60
1500156235.56,36619,17.0,74002.5,-0.75,-1.75,-1.51,0,*6F
1500156236.75,36620,17.0,74006.8,-0.77,-1.79,-1.55,0,*6F
1500156237.97,36621,17.0,74002.8,-0.75,-1.71,-1.59,0,*68
1500156239.15,36622,17.0,74008.0,-0.77,-1.75,-1.63,0,*64
1500156240.37,36623,17.0,74010.3,-0.77,-1.83,-1.63,0,*6C
1500156241.58,36624,17.0,74008.3,-0.77,-1.91,-1.75,0,*6F
1500156242.8,36625,17.0,74006.0,-0.77,-1.87,-1.67,0,*6A
1500156244.02,36626,17.0,74006.5,-0.77,-1.87,-1.63,0,*6D
1500156245.23,36627,17.0,74006.3,-0.75,-1.75,-1.51,0,*62
1500156246.42,36628,17.0,74010.0,-0.77,-1.75,-1.55,0,*6B
1500156247.61,36629,17.0,74010.0,-0.77,-1.79,-1.63,0,*63
1500156248.82,36630,17.0,74004.8,-0.75,-1.59,-1.51,0,*6A
1500156250.01,36631,17.0,74008.8,-0.77,-1.67,-1.51,0,*64
1500156251.19,36632,17.0,74010.0,-0.77,-1.67,-1.51,0,*67
1500156252.38,36633,17.0,74008.3,-0.77,-1.67,-1.55,0,*62
1500156253.57,36634,17.0,74010.0,-0.77,-1.75,-1.51,0,*62
1500156254.81,36635,17.0,74012.3,-0.75,-1.63,-1.47,0,*61
1500156256.02,36636,17.0,74012.0,-0.75,-1.63,-1.55,0,*61
1500156257.21,36637,17.0,74010.8,-0.77,-1.67,-1.55,0,*66
1500156258.42,36638,17.0,74010.0,-0.75,-1.63,-1.51,0,*6B
1500156259.61,36639,17.0,74010.3,-0.77,-1.67,-1.55,0,*68
1500156260.85,36640,17.0,74014.0,-0.75,-1.71,-1.47,0,*60
1500156262.07,36641,17.0,74014.5,-0.75,-1.63,-1.51,0,*65
1500156263.25,36642,17.0,74014.3,-0.77,-1.67,-1.55,0,*64
1500156264.44,36643,17.0,74012.3,-0.77,-1.67,-1.55,0,*65
1500156265.65,36644,17.0,74016.8,-0.75,-1.63,-1.51,0,*60
1500156266.84,36645,17.0,74014.0,-0.77,-1.75,-1.55,0,*60
1500156268.02,36646,17.0,74014.8,-0.77,-1.75,-1.55,0,*63
1500156269.26,36647,17.0,74018.3,-0.75,-1.63,-1.47,0,*64
1500156270.51,36648,17.0,74018.0,-0.75,-1.71,-1.47,0,*68
1500156271.75,36649,17.0,74014.8,-0.75,-1.63,-1.47,0,*6A
1500156272.99,36650,17.0,74018.5,-0.75,-1.63,-1.47,0,*62
1500156274.23,36651,17.0,74014.8,-0.75,-1.63,-1.47,0,*63
1500156275.42,36652,17.0,74012.8,-0.77,-1.67,-1.51,0,*61
1500156276.61,36653,17.0,74018.3,-0.77,-1.75,-1.55,0,*67
1500156277.79,36654,17.0,74012.8,-0.77,-1.67,-1.55,0,*63
1500156278.98,36655,17.0,74014.3,-0.77,-1.67,-1.55,0,*62
1500156280.19,36656,17.0,74016.8,-0.75,-1.63,-1.51,0,*63
1500156281.41,36657,17.0,74016.3,-0.75,-1.63,-1.51,0,*62
1500156282.65,36658,17.0,74016.3,-0.75,-1.63,-1.47,0,*6A
1500156283.89,36659,17.0,74018.0,-0.75,-1.63,-1.47,0,*6B
1500156285.13,36660,17.0,74016.0,-0.75,-1.63,-1.47,0,*61
1500156286.37,36661,17.0,74016.0,-0.75,-1.71,-1.47,0,*63
1500156287.61,36662,17.0,74018.0,-0.75,-1.63,-1.47,0,*63
1500156288.85,36663,17.0,74018.0,-0.75,-1.63,-1.47,0,*62
1500156290.1,36664,17.0,74016.3,-0.75,-1.71,-1.47,0,*66
1500156291.32,36665,17.0,74018.8,-0.73,-1.71,-1.47,0,*61
1500156292.57,36666,17.0,74012.5,-0.75,-1.71,-1.47,0,*64
1500156293.81,36667,17.0,74018.5,-0.75,-1.75,-1.47,0,*61
1500156295.05,36668,17.0,74016.8,-0.75,-1.71,-1.47,0,*6A
1500156296.3,36669,17.0,74016.5,-0.75,-1.71,-1.47,0,*6B
1500156297.54,36670,17.0,74016.3,-0.75,-1.75,-1.47,0,*67
1500156298.79,36671,17.0,74016.3,-0.75,-1.71,-1.47,0,*62
1500156300.04,36672,17.0,74016.5,-0.75,-1.71,-1.47,0,*61
1500156301.26,36673,17.0,74014.8,-0.75,-1.71,-1.51,0,*67
1500156302.48,36674,17.0,74014.8,-0.75,-1.71,-1.51,0,*60
1500156303.69,36675,17.0,74012.3,-0.75,-1.63,-1.51,0,*62
1500156304.91,36676,17.0,74012.0,-0.75,-1.71,-1.51,0,*62
1500156306.13,36677,17.0,74012.5,-0.75,-1.63,-1.51,0,*60
1500156307.35,36678,17.0,74018.5,-0.75,-1.71,-1.51,0,*6C
1500156308.57,36679,17.0,74018.0,-0.75,-1.71,-1.51,0,*6D
1500156309.79,36680,17.0,74012.8,-0.75,-1.71,-1.51,0,*6B
1500156311.01,36681,17.0,74012.0,-0.75,-1.71,-1.51,0,*6A
1500156312.2,36682,17.0,74016.5,-0.73,-1.75,-1.51,0,*6B
1500156313.42,36683,17.0,74016.3,-0.75,-1.71,-1.51,0,*68
1500156314.61,36684,17.0,74012.8,-0.73,-1.71,-1.51,0,*69
1500156315.79,36685,17.0,74012.8,-0.73,-1.75,-1.51,0,*6C
1500156316.98,36686,17.0,74016.0,-0.73,-1.71,-1.51,0,*6B
1500156318.17,36687,17.0,74018.3,-0.73,-1.63,-1.51,0,*69
1500156319.36,36688,17.0,74016.8,-0.73,-1.71,-1.51,0,*65
1500156320.55,36689,17.0,74016.0,-0.77,-1.67,-1.55,0,*63
1500156321.76,36690,17.0,74014.8,-0.75,-1.75,-1.51,0,*6E
1500156323.0,36691,17.0,74018.0,-0.75,-1.83,-1.51,0,*66
1500156324.25,36692,17.0,74016.5,-0.75,-1.83,-1.51,0,*65
1500156325.47,36693,17.0,74014.5,-0.75,-1.71,-1.51,0,*69
1500156326.66,36694,17.0,74014.3,-0.77,-1.79,-1.63,0,*65
1500156327.87,36695,17.0,74012.5,-0.75,-1.75,-1.59,0,*63
1500156329.05,36696,17.0,74016.3,-0.73,-1.75,-1.59,0,*66
1500156330.26,36697,17.0,74012.0,-0.75,-1.75,-1.59,0,*61
1500156331.5,36698,17.0,74014.3,-0.75,-1.83,-1.51,0,*6F
1500156332.72,36699,17.0,74012.5,-0.75,-1.75,-1.51,0,*67
1500156333.93,36700,17.0,74016.0,-0.75,-1.75,-1.59,0,*6E
1500156335.14,36701,17.0,74012.8,-0.77,-1.87,-1.63,0,*69
1500156336.33,36702,17.0,74010.5,-0.77,-1.79,-1.63,0,*6B
1500156337.57,36703,17.0,74008.8,-0.75,-1.83,-1.59,0,*64
1500156338.78,36704,17.0,74014.3,-0.73,-1.83,-1.59,0,*65
1500156339.99,36705,17.0,74010.3,-0.73,-1.87,-1.59,0,*60
1500156341.2,36706,17.0,74010.3,-0.73,-1.83,-1.59,0,*67
1500156342.42,36707,17.0,74012.8,-0.75,-1.75,-1.51,0,*61
1500156343.63,36708,17.0,74012.3,-0.75,-1.75,-1.51,0,*6E
1500156344.87,36709,17.0,74016.8,-0.75,-1.83,-1.59,0,*6E
1500156346.08,36710,17.0,74014.8,-0.75,-1.75,-1.59,0,*6F
1500156347.27,36711,17.0,74012.0,-0.77,-1.75,-1.55,0,*60
1500156348.48,36712,17.0,74004.8,-0.77,-1.87,-1.63,0,*6B
1500156349.7,36713,17.0,74010.5,-0.75,-1.75,-1.51,0,*64
1500156350.91,36714,17.0,74008.5,-0.75,-1.75,-1.51,0,*63
1500156352.13,36715,17.0,74008.0,-0.75,-1.71,-1.51,0,*66
1500156353.32,36716,17.0,74008.8,-0.77,-1.79,-1.55,0,*6B
1500156354.53,36717,17.0,74006.0,-0.75,-1.75,-1.59,0,*68
1500156355.74,36718,17.0,74008.5,-0.75,-1.75,-1.51,0,*6F
1500156356.99,36719,17.0,74012.3,-0.75,-1.83,-1.51,0,*67
1500156358.21,36720,17.0,74010.3,-0.75,-1.71,-1.51,0,*60
1500156359.39,36721,17.0,74008.8,-0.77,-1.75,-1.55,0,*63
1500156360.62,36722,17.0,74008.3,-0.75,-1.71,-1.51,0,*62
1500156361.8,36723,17.0,74010.3,-0.77,-1.75,-1.55,0,*61
1500156363.02,36724,17.0,74010.8,-0.75,-1.71,-1.51,0,*64
1500156364.24,36725,17.0,74008.5,-0.75,-1.71,-1.59,0,*6D
1500156365.45,36726,17.0,74008.5,-0.75,-1.63,-1.51,0,*65
1500156366.67,36727,17.0,74012.5,-0.75,-1.63,-1.51,0,*64
1500156367.89,36728,17.0,74014.0,-0.75,-1.71,-1.51,0,*68
1500156369.1,36729,17.0,74008.3,-0.75,-1.63,-1.51,0,*6A
1500156370.32,36730,17.0,74008.8,-0.75,-1.63,-1.51,0,*62
1500156371.54,36731,17.0,74008.0,-0.75,-1.71,-1.51,0,*60
1500156372.76,36732,17.0,74008.8,-0.75,-1.71,-1.59,0,*6B
1500156373.98,36733,17.0,74010.3,-0.75,-1.71,-1.51,0,*62
1500156375.19,36734,17.0,74010.8,-0.75,-1.63,-1.51,0,*66
1500156376.41,36735,17.0,74008.3,-0.75,-1.71,-1.51,0,*64
1500156377.63,36736,17.0,74010.8,-0.75,-1.63,-1.51,0,*64
1500156378.81,36737,17.0,74010.0,-0.77,-1.75,-1.51,0,*60
1500156380.05,36738,17.0,74004.3,-0.75,-1.63,-1.47,0,*6D
1500156381.3,36739,17.0,74010.3,-0.75,-1.71,-1.47,0,*6F
1500156382.51,36740,17.0,74006.0,-0.75,-1.75,-1.51,0,*62
1500156383.73,36741,17.0,74008.5,-0.75,-1.71,-1.51,0,*67
1500156384.96,36742,17.0,74010.3,-0.75,-1.71,-1.51,0,*64
1500156386.17,36743,17.0,74008.3,-0.75,-1.75,-1.51,0,*61
1500156387.39,36744,17.0,74006.3,-0.75,-1.75,-1.51,0,*66
1500156388.6,36745,17.0,74008.3,-0.75,-1.75,-1.51,0,*67
1500156389.82,36746,17.0,74002.3,-0.75,-1.71,-1.51,0,*60
1500156391.04,36747,17.0,74006.5,-0.75,-1.71,-1.51,0,*61
1500156392.26,36748,17.0,74004.8,-0.75,-1.75,-1.51,0,*6A
1500156393.44,36749,17.0,73998.8,-0.73,-1.75,-1.51,0,*6D
1500156394.68,36750,17.0,73998.8,-0.75,-1.83,-1.59,0,*62
1500156395.92,36751,17.0,74010.3,-0.75,-1.83,-1.59,0,*63
1500156397.13,36752,17.0,74014.5,-0.75,-1.75,-1.51,0,*61
1500156398.37,36753,17.0,74008.0,-0.75,-1.83,-1.59,0,*61
1500156399.58,36754,17.0,74004.8,-0.73,-1.83,-1.59,0,*60
1500156400.83,36755,17.0,74002.0,-0.75,-1.83,-1.51,0,*6F
1500156402.07,36756,17.0,73998.8,-0.75,-1.83,-1.51,0,*6C
1500156403.31,36757,17.0,74000.0,-0.75,-1.83,-1.51,0,*6D
1500156404.53,36758,17.0,73996.3,-0.75,-1.75,-1.51,0,*6B
1500156405.77,36759,17.0,73994.3,-0.75,-1.87,-1.59,0,*6F
1500156407.01,36760,17.0,74000.3,-0.75,-1.87,-1.59,0,*65
1500156408.25,36761,17.0,74000.3,-0.75,-1.87,-1.59,0,*64
1500156409.49,36762,17.0,73998.5,-0.75,-1.83,-1.51,0,*6B
1500156410.73,36763,17.0,74000.8,-0.75,-1.87,-1.59,0,*66
1500156411.94,36764,17.0,74006.0,-0.75,-1.75,-1.59,0,*6C
1500156413.16,36765,17.0,73998.5,-0.77,-1.87,-1.67,0,*6F
1500156414.4,36766,17.0,74002.8,-0.75,-1.83,-1.63,0,*6E
1500156415.59,36767,17.0,74004.3,-0.77,-1.79,-1.63,0,*68
1500156416.78,36768,17.0,73998.0,-0.77,-1.79,-1.63,0,*67
1500156418.02,36769,17.0,73996.0,-0.75,-1.83,-1.51,0,*60
1500156419.24,36770,17.0,73994.3,-0.75,-1.75,-1.51,0,*61
1500156420.45,36771,17.0,74002.8,-0.75,-1.75,-1.51,0,*60
1500156421.67,36772,17.0,74010.8,-0.75,-1.71,-1.59,0,*6F
1500156422.88,36773,17.0,74006.0,-0.75,-1.75,-1.59,0,*6A
1500156424.09,36774,17.0,74000.3,-0.77,-1.87,-1.63,0,*6B
1500156425.33,36775,17.0,74000.8,-0.75,-1.83,-1.59,0,*65
1500156426.55,36776,17.0,74006.5,-0.75,-1.75,-1.51,0,*67
1500156427.76,36777,17.0,74004.8,-0.75,-1.75,-1.51,0,*66
1500156429.01,36778,17.0,74004.0,-0.75,-1.83,-1.67,0,*65
1500156430.23,36779,17.0,74000.8,-0.77,-1.91,-1.67,0,*65
1500156431.41,36780,17.0,74000.3,-0.77,-1.79,-1.55,0,*64
1500156432.62,36781,17.0,74004.5,-0.75,-1.75,-1.59,0,*67
1500156433.84,36782,17.0,74002.5,-0.75,-1.71,-1.59,0,*60
1500156435.05,36783,17.0,74006.8,-0.75,-1.75,-1.51,0,*6D
1500156436.27,36784,17.0,74004.5,-0.75,-1.75,-1.59,0,*62
1500156437.45,36785,17.0,74002.8,-0.77,-1.79,-1.55,0,*61
1500156438.67,36786,17.0,73998.3,-0.75,-1.71,-1.51,0,*6C
1500156439.89,36787,17.0,74002.3,-0.75,-1.63,-1.51,0,*6E
1500156441.11,36788,17.0,73998.8,-0.75,-1.71,-1.51,0,*62
1500156442.35,36789,17.0,73988.8,-0.75,-2.07,-1.75,0,*67
1500156443.57,36790,17.0,73990.3,-0.77,-1.91,-1.67,0,*62
1500156444.78,36791,17.0,73994.8,-0.77,-1.91,-1.67,0,*63
1500156446.0,36792,17.0,73998.3,-0.77,-1.87,-1.67,0,*67
1500156447.22,36793,17.0,73994.0,-0.75,-1.75,-1.51,0,*6C
1500156448.46,36794,17.0,73994.3,-0.75,-1.83,-1.59,0,*6A
1500156449.7,36795,17.0,73990.3,-0.75,-1.83,-1.59,0,*6B
1500156450.91,36796,17.0,73996.5,-0.77,-1.87,-1.63,0,*67
1500156452.15,36797,17.0,74004.8,-0.75,-1.83,-1.59,0,*69
1500156453.37,36798,17.0,74002.3,-0.77,-1.87,-1.63,0,*69
1500156454.59,36799,17.0,73996.8,-0.77,-1.87,-1.63,0,*68
1500156455.8,36800,17.0,74000.8,-0.77,-1.91,-1.75,0,*67
1500156457.02,36801,17.0,73996.3,-0.77,-1.99,-1.67,0,*6D
1500156458.24,36802,17.0,73994.5,-0.77,-1.87,-1.67,0,*61
1500156459.43,36803,17.0,73996.5,-0.77,-1.79,-1.63,0,*65
1500156460.64,36804,17.0,74002.0,-0.77,-1.87,-1.55,0,*66
1500156461.85,36805,17.0,74006.0,-0.75,-1.75,-1.59,0,*64
1500156463.07,36806,17.0,74004.8,-0.75,-1.75,-1.51,0,*6F
1500156464.26,36807,17.0,73998.0,-0.77,-1.67,-1.63,0,*6E
1500156465.47,36808,17.0,74000.3,-0.77,-1.87,-1.63,0,*6F
1500156466.72,36809,17.0,74002.5,-0.75,-2.07,-1.71,0,*64
1500156467.94,36810,17.0,74002.3,-0.77,-2.11,-1.79,0,*61
1500156469.18,36811,17.0,74004.5,-0.75,-1.95,-1.63,0,*66
1500156470.4,36812,17.0,74000.8,-0.77,-1.87,-1.63,0,*64
1500156471.64,36813,17.0,74004.5,-0.75,-1.83,-1.63,0,*63
1500156472.85,36814,17.0,74000.0,-0.75,-1.75,-1.59,0,*64
1500156474.07,36815,17.0,73998.0,-0.77,-1.87,-1.63,0,*63
1500156475.25,36816,17.0,73998.0,-0.77,-1.79,-1.63,0,*61
1500156476.44,36817,17.0,74008.3,-0.77,-1.75,-1.55,0,*69
1500156477.66,36818,17.0,74000.5,-0.75,-1.71,-1.51,0,*64
1500156478.85,36819,17.0,74002.0,-0.77,-1.79,-1.63,0,*6E
1500156480.06,36820,17.0,73998.3,-0.75,-1.75,-1.51,0,*6B
1500156481.25,36821,17.0,73996.3,-0.77,-1.67,-1.55,0,*6F
1500156482.44,36822,17.0,73996.3,-0.77,-1.79,-1.63,0,*66
1500156483.63,36823,17.0,74002.0,-0.77,-1.79,-1.63,0,*67
1500156484.81,36824,17.0,74006.8,-0.77,-1.67,-1.55,0,*6A
1500156486.0,36825,17.0,74004.8,-0.77,-1.75,-1.55,0,*68
1500156487.22,36826,17.0,74008.0,-0.75,-1.71,-1.51,0,*69
1500156488.4,36827,17.0,74006.0,-0.77,-1.75,-1.55,0,*6A
1500156489.59,36828,17.0,73996.0,-0.77,-1.75,-1.63,0,*60
1500156490.78,36829,17.0,73998.3,-0.77,-1.75,-1.63,0,*61
1500156492.02,36830,17.0,73986.8,-0.75,-1.83,-1.59,0,*6B
1500156493.24,36831,17.0,73994.0,-0.77,-1.99,-1.63,0,*6A
1500156494.45,36832,17.0,74002.0,-0.77,-1.91,-1.63,0,*61
1500156495.67,36833,17.0,73994.8,-0.77,-1.91,-1.67,0,*64
1500156496.91,36834,17.0,73996.5,-0.75,-1.87,-1.59,0,*6B
1500156498.1,36835,17.0,73992.0,-0.77,-1.79,-1.63,0,*60
1500156499.34,36836,17.0,73996.8,-0.75,-1.83,-1.59,0,*6D
1500156500.55,36837,17.0,73998.3,-0.77,-1.83,-1.55,0,*62
1500156501.79,36838,17.0,73994.8,-0.75,-1.83,-1.51,0,*6B
1500156503.01,36839,17.0,74002.5,-0.77,-1.91,-1.67,0,*6E
1500156504.25,36840,17.0,73996.0,-0.75,-1.87,-1.63,0,*61
1500156505.47,36841,17.0,73998.8,-0.77,-1.91,-1.67,0,*61
1500156506.71,36842,17.0,74002.3,-0.75,-1.95,-1.51,0,*61
1500156507.93,36843,17.0,74004.0,-0.77,-1.87,-1.63,0,*60
1500156509.14,36844,17.0,74002.5,-0.77,-1.87,-1.63,0,*67